TimeEDT,TemperatureF,Dew PointF,Humidity,Sea Level PressureIn,VisibilityMPH,Wind Direction,Wind SpeedMPH,Gust SpeedMPH,PrecipitationIn,Events,Conditions,WindDirDegrees,DateUTC
12:54 AM,51.1,44.1,77,30.36,10.0,ENE,3.5,-,N/A,,Clear,70,2013-09-17 04:54:00
1:54 AM,50.0,44.1,80,30.36,10.0,East,5.8,-,N/A,,Clear,80,2013-09-17 05:54:00
2:54 AM,50.0,44.1,80,30.37,10.0,East,6.9,-,N/A,,Clear,100,2013-09-17 06:54:00
3:54 AM,48.9,43.0,80,30.38,10.0,East,6.9,-,N/A,,Clear,100,2013-09-17 07:54:00
4:54 AM,48.0,43.0,83,30.37,10.0,East,6.9,-,N/A,,Clear,100,2013-09-17 08:54:00
5:54 AM,46.9,43.0,86,30.37,10.0,East,6.9,-,N/A,,Clear,100,2013-09-17 09:54:00
6:54 AM,46.9,43.0,86,30.37,10.0,East,5.8,-,N/A,,Clear,90,2013-09-17 10:54:00
7:54 AM,46.9,43.0,86,30.38,10.0,East,6.9,-,N/A,,Clear,100,2013-09-17 11:54:00
8:54 AM,50.0,44.1,80,30.39,10.0,ESE,8.1,-,N/A,,Clear,110,2013-09-17 12:54:00
9:54 AM,54.0,45.0,72,30.39,10.0,ESE,10.4,-,N/A,,Clear,110,2013-09-17 13:54:00
10:54 AM,59.0,46.0,62,30.38,10.0,SE,8.1,-,N/A,,Clear,130,2013-09-17 14:54:00
11:54 AM,63.0,46.0,54,30.36,10.0,ESE,8.1,-,N/A,,Clear,110,2013-09-17 15:54:00
12:54 PM,66.0,46.9,50,30.33,10.0,ESE,9.2,-,N/A,,Clear,110,2013-09-17 16:54:00
1:54 PM,69.1,46.0,44,30.30,10.0,SE,11.5,-,N/A,,Clear,130,2013-09-17 17:54:00
2:54 PM,69.1,46.0,44,30.28,10.0,SSE,5.8,-,N/A,,Clear,150,2013-09-17 18:54:00
3:54 PM,70.0,45.0,41,30.25,10.0,SE,5.8,-,N/A,,Clear,140,2013-09-17 19:54:00
4:54 PM,70.0,43.0,38,30.23,10.0,ESE,6.9,-,N/A,,Clear,120,2013-09-17 20:54:00
5:54 PM,70.0,43.0,38,30.22,10.0,SSE,9.2,-,N/A,,Clear,150,2013-09-17 21:54:00
6:54 PM,68.0,45.0,43,30.21,10.0,SE,6.9,-,N/A,,Clear,140,2013-09-17 22:54:00
7:54 PM,64.9,46.9,52,30.21,10.0,SSE,5.8,-,N/A,,Clear,160,2013-09-17 23:54:00
8:54 PM,64.0,46.0,52,30.21,10.0,SE,4.6,-,N/A,,Clear,130,2013-09-18 00:54:00
9:54 PM,63.0,46.0,54,30.19,10.0,ESE,5.8,-,N/A,,Clear,120,2013-09-18 01:54:00
10:54 PM,63.0,43.0,48,30.19,10.0,SE,6.9,-,N/A,,Clear,130,2013-09-18 02:54:00
11:54 PM,61.0,44.1,54,30.19,10.0,ESE,6.9,-,N/A,,Clear,110,2013-09-18 03:54:00